YTMNJ's sites:

title views votes rating creation
?Erm, wtf? V8 737 7 (3.57)  2008-03-04
?Erm, wtf? V7 721 7 (2.71)  2008-02-01
?A red egg belts out a facemelter! 1,616 9 (3.11)  2008-01-31
?March of the Mingebags 758 7 (3.86)  2008-01-08
?Erm, wtf? V6 1,136 36 (3.33)  2008-01-03
?Erm, wtf? V5 323 7 (3.29)  2007-12-17
?The Master surprise attacks the Doctor and Martha ... 1,482 5 (2.00)  2007-12-13
?Erm, wtf? V4 1,215 46 (3.74)  2007-11-28
?Rose Tyler is returning to Doctor Who! 572 2 (3.00)  2007-11-27
?Shadow the Hedgehog has no class 554 2 (1.50)  2007-11-23
?Garry's Mod rave. With Still Alive Portal re... 2,083 10 (2.70)  2007-11-15
?OMG, secret nazi teapot! 768 13 (3.62)  2007-11-14
?This Summer, two disabled people will embark on a... 421 2 (3.00)  2007-11-08
?YTMND needs more cowbell. 678 14 (3.21)  2007-11-06
?Rose Tyler was just one in a long line... 601 11 (3.55)  2007-11-02
?Half-Life 2 Episode Three ending. Gordon wins. 1,068 7 (3.00)  2007-11-01
?The Doctor has one other weakness... 332 6 (2.33)  2007-10-31
?March of the Gnomes 1,679 36 (3.83)  2007-10-29
?What you see right before a llama dies... 476 8 (1.88)  2007-10-22
?Machine code boomkin. 461 5 (1.80)  2007-10-18
?Holy shit.... 253 5 (1.80)  2007-10-16
?Something terrible has happened to PHW... 456 4 (2.50)  2007-10-15
?(nsfw) Surprise buttsechs. Also glomph. 1,069 6 (3.50)  2007-10-14
?R.I.P Eli Vance. 1,213 6 (3.33)  2007-10-12
?Aphex Twin belts out a facemelter 750 7 (2.00)  2007-10-11
?The Doctor screams LOUD. 210 4 (2.50)  2007-10-11
?If Saturn had sentient life, it'd look like thi... 475 10 (2.90)  2007-10-08
?Samus has a new enemy... 1,241 8 (2.13)  2007-10-08
?Starcraft: Christmas 1,264 8 (3.75)  2007-10-08
?Go fat boi, go fat boi, go! 3,226 13 (3.77)  2007-09-28
?This is the leader of humanity... 407 5 (2.00)  2007-09-28
?Erm, wtf? V3 336 10 (3.20)  2007-09-28
?The Undead love to rock... 363 9 (1.67)  2007-09-25
?Yet Another Half-Life 2: Episode Two Spoiler 784 5 (2.60)  2007-09-24
?Domokun is... That Angry German Kid 821 8 (2.38)  2007-09-22
?Amy Rose will eat your soul! 1,439 3 (1.33)  2007-09-21
?Screaming Toothless Guy will eat your soul. 285 8 (1.00)  2007-09-20
?Hamtaro learns the terrible truth... 390 4 (3.50)  2007-09-10
?Doctor Who 300 605 9 (2.00)  2007-09-07
?What is love? Why, it's a Clockwork ... 1,546 13 (3.31)  2007-09-07
?The Flag of YTMND. For great patriotism! 438 7 (1.57)  2007-09-05
?Also... V2 252 4 (1.25)  2007-09-03
?Team Fortress 2 doesn't like smokers. 4,890 25 (3.48)  2007-09-02
?Black Hole Daisy returns. This time with 100% mor... 751 5 (2.00)  2007-08-08
?Breakdancing Cat dances to Blue Men: Rods and ... 4,001 10 (2.80)  2007-08-08
?The Doctor Is Hypnotised + Donna Noble Not Amu... 592 8 (1.88)  2007-08-07
?A new Halo enemy... 613 12 (1.25)  2007-08-05
?A message to Newdeedeedeer... 462 10 (1.40)  2007-08-04
?The next WoW expansion. 725 15 (1.73)  2007-08-03
?RE4. BOOMIES. 717 8 (2.88)  2007-08-03
?New York cabbies have strict guidelines. Number on... 211 3 (2.33)  2007-08-03
?Teabag: The only way Master Chief gets any boot... 326 4 (3.00)  2007-08-03
?(nsfw) So I hear you like to downvote. Well, if so... 328 8 (1.25)  2007-08-02
?Omg, secret nazi watermelon? 1,294 17 (3.53)  2007-08-02
?Excited emote rave. Dewd, you're in fo... 1,023 19 (2.53)  2007-08-01
?Heavy wants to know... 190 3 (1.33)  2007-07-31
?Davy L Jackson 254 3 (1.67)  2007-07-30
?Fatty Rave. SEX. Now I has yo attention, Warning:... 849 6 (3.17)  2007-07-28
?After Omega. Coming 30th December 2016. 598 3 (1.00)  2007-07-27
?RewardTMND: You win two beers! 549 8 (2.25)  2007-07-27
?Gman: He is coming. 898 7 (3.71)  2007-07-27
?New Half-Life 2: Episode Two enemy revealed. 739 6 (3.50)  2007-07-24
?Epic Furry Fashion Maneuver 1,199 10 (1.60)  2007-07-23
?The tragic truth about Leonidas... 470 4 (1.00)  2007-07-23
?Seagull Man is... WTF? 375 5 (1.40)  2007-07-23
?Seagull Man plays Tetris. 250 5 (2.60)  2007-07-23
?Epic giant duck roundhouse kicking Chuck Norris m... 988 9 (2.11)  2007-07-21
?Fan Fic Mad Max 4 728 3 (2.00)  2007-07-21
?R.I.P Fat Dog 961 9 (2.78)  2007-07-20
?(nsfw) The Lord of the Gays is... 472 7 (2.00)  2007-07-19
?What's up next for Japan... 788 6 (2.33)  2007-07-18
?Half-Life Two Episode Two: The Plot Thickens... 950 7 (1.86)  2007-07-17
?The Chuck Norris of the BBC... 807 9 (2.11)  2007-07-13
?Erm, wtf? V2 278 12 (2.08)  2007-07-13
?Erm, wtf? 1,074 9 (2.11)  2007-07-10
?Cat Skinners Must Die. 679 13 (2.85)  2007-07-07
?Tails + Tunak Tunak =... 1,050 6 (1.50)  2007-07-06
?Somehting wyrde... 386 11 (3.00)  2007-07-04
?(nsfw) Ravebow Horseman takes a leak 627 6 (1.17)  2007-06-26
?Scrubs KO 970 8 (1.75)  2007-06-23
?Unreleased Alien Game 421 2 (1.00)  2007-06-22
?Disco Ball is ridin' spinnaz 709 8 (2.88)  2007-06-21
?Is it me, or do Protoss look a bit like Draenei? 1,002 11 (1.91)  2007-06-19
?Cream and Tails. What a couple. 1,219 12 (1.50)  2007-06-18
?A message from the Doctor... 1,763 13 (3.54)  2007-06-15
?R.I.Ptmnd: Dumb rating 358 7 (1.14)  2007-06-12
?At least Tauren have chicken... 855 14 (1.07)  2007-06-11
?Push-Up Kittah pushes it to the limit 494 4 (1.75)  2007-06-11
?French fries have one weakness... 1,749 11 (2.00)  2007-06-08
?The Doctor has one weakness... 536 10 (1.30)  2007-06-07
?The Ring has yet another weakness... 478 3 (3.00)  2007-06-07
?Half-Life 2 Episode Two Major Spoiler. 788 9 (2.78)  2007-06-07
?Merry the Mage encounters some hawt bathing boo... 929 9 (1.67)  2007-06-07
?The real agony of undeath 2,081 10 (3.10)  2007-06-03
?Pokemon Mystery Dungeon 1337 Edition 859 7 (2.29)  2007-06-01
?Tails is a 1337 World of Warcraft player. Contains... 2,377 12 (2.33)  2007-06-01
?NEDM is a pokemon! Here's the proof. 2,110 7 (2.29)  2007-05-31
?Laughing owl. O rly? Ya rly! 1,603 6 (1.33)  2007-05-22
?Demonic Internet Baby 1,052 12 (2.42)  2007-05-21
?Stare for some time, and you'll see a gi... 302 5 (3.00)  2007-05-18
?RewardTMND: Owl Pie. 617 9 (2.56)  2007-05-15
?emot_piratesong. Contains Lazytown. 892 8 (1.88)  2007-05-14
?Murloc Rave V3: Third time lucky... 1,040 6 (3.00)  2007-05-11
?NEDM's Revenge: Top Gear Edition 1,392 11 (2.73)  2007-05-09
?Murloc Rave. This time, it's MORE INTE... 964 5 (1.40)  2007-05-09
?Oh my god, cannibal Tauren! 867 8 (2.13)  2007-05-08
?The Fat Dog Song 402 7 (1.57)  2007-05-08
?RewardTMND: Cookies 558 6 (3.00)  2007-05-07
?Batman in WoW 714 17 (1.53)  2007-05-06
?Little Britain Gmod 836 12 (3.00)  2007-05-05
?Alyx lives! Also, Gordon has a '69 Dod... 814 7 (2.71)  2007-05-04
?InteractivetMND V2: Move your eyes across the sc... 878 4 (1.00)  2007-05-04
?InteractivetMND: Move your eyes across the scree... 687 8 (2.75)  2007-05-04
???UnKnOwN?? of Facepunch is a Photokinetic Psy... 558 9 (1.11)  2007-05-02
?YTMND is loading, please stand by for music. 498 11 (3.27)  2007-05-01
?Omg, Secret Nazi Hindu Symbol! 1,743 14 (1.50)  2007-04-30
?How to make antigravity. Do not enter if you can&#... 443 13 (2.92)  2007-04-29
?Oh Sweet Lord, an animation error! 878 7 (2.00)  2007-04-29
?The Doctor is Hypnotized + Donna Noble Not Amu... 616 4 (2.25)  2007-04-29
?Zoidberg is an awesome god. 829 10 (2.70)  2007-04-27
?Dancing Ninja Gravity Cat Not Amused 844 8 (1.88)  2007-04-24
?Omg, Human-Dalek hybrid! 576 5 (2.40)  2007-04-22
?Doctor Who Gravity Cat in New New York 957 3 (1.33)  2007-04-15
?Black Hole Daisy 1,148 8 (2.38)  2007-04-12
?Gravity Cat gravity-crushes his opponent 432 7 (2.71)  2007-04-12
?Gravity Cat checks the pressure gauge 518 7 (2.86)  2007-04-06
?Mel Gibson is ridin' spinnaz 622 11 (1.73)  2007-04-04
?Gravity Cat gets some shades 693 6 (1.17)  2007-04-04
?AfroTMND: Afro Zoidberg! 430 8 (2.50)  2007-04-02
?AfroTMND: Afro Cat! 322 3 (2.67)  2007-04-01
?AfroTMND: Afro Sontaran! 505 3 (1.00)  2007-04-01
?Zomg, Cthulu descends upon us! 1,039 8 (2.38)  2007-03-29
?Gravity Cat finally achieves Enlightenment in Garry... 3,391 36 (4.00)  2007-03-20
?I'm Baaack! 1,387 6 (3.50)  2007-03-20
?This is the brother of Leeroy Jenkins... 493 5 (2.40)  2007-03-19
?Also... 591 14 (3.71)  2007-03-19
?Breen stares 969 5 (1.00)  2007-03-12
?Team Fortress 2 Benny Hill 3,373 17 (2.53)  2007-03-10
?Gordon Freeman has facial xpressions! 724 8 (1.63)  2007-03-09
?Ghost Rave (300% more nazi song than normal gh... 1,248 3 (2.67)  2007-03-08
?iCat headbanger 601 14 (3.14)  2007-03-05
?Hitler's Speech 653 2 (2.00)  2007-03-05
?Epic 4-D Rotation Maneuver 767 10 (2.90)  2007-03-04
?Cats love Vigilante 1,051 4 (3.00)  2007-02-27
?Lol, yoshi 2,276 7 (2.14)  2007-02-26
?Lol, enterprise (Much better version) 1,775 10 (3.60)  2007-02-16
?Scar-Life: The World Is Yours 574 6 (1.00)  2007-02-16
?(PTKFGS) Homo Soap 690 6 (3.17)  2007-02-16
?Shodan Approves! 839 3 (1.33)  2007-02-11
?Gman Moskau breakdance with his yappin' d... 882 14 (2.86)  2007-01-31
?Shoop Da Whoop Gmod 7,762 25 (3.48)  2007-01-31
?Sonic snuffs it 1,129 3 (3.00)  2007-01-30
?Shaun and his friends are vandals! 810 8 (3.13)  2007-01-29
?Screaming Camel is hungry! 762 19 (3.58)  2007-01-21
?Gordon is a Free Man 428 5 (1.40)  2007-01-20
?Gravity Cat vs NEDM MSP HD (it's an edit&... 1,257 21 (3.33)  2007-01-19
?The REAL what is Fresh Prince 1,058 12 (3.00)  2007-01-12
?Burger King pwnt Iron Chef 1,067 21 (2.24)  2007-01-08
?Headphone Cats like NEDM 764 11 (2.55)  2007-01-07
?Armless N64 kid 726 15 (1.07)  2007-01-07
?Laughing NEDM 454 13 (2.62)  2007-01-04
?Rockin' Muzak 393 5 (1.20)  2007-01-03
?Tails & Kleiner Merge 677 11 (2.45)  2006-12-30
?Gravity Cat vs NEDM (Paint Edition) 1,073 21 (3.24)  2006-12-30
?Fear the Pinkies 426 15 (2.87)  2006-12-30
?Doom 2 Source 562 4 (2.00)  2006-12-29
?Oh Noes! Satan! 518 6 (2.33)  2006-12-29
?You the man now Jack 456 6 (1.00)  2006-12-29